"2016-01-28 00:00:00",1323291,8.69,209.5,7.338,1.368,12.95,103.1846,7.429,8.6,30.99,0,110.1,13.18,8.21,171.5
"2016-01-28 00:00:30",1323292,9.1,209.6,7.164,1.33,13.79,103.1843,7.429,8.63,31.02,0,110.1,13.18,8.21,171.6
"2016-01-28 00:01:00",1323293,8.88,207.1,7.271,1.396,13.03,103.1846,7.429,8.61,31.04,0,110.1,13.18,8.21,169.1
"2016-01-28 00:01:30",1323294,8.02,203.8,6.036,1.166,11.68,103.1852,7.431,8.54,31.07,0,110.1,13.17,8.21,165.8
"2016-01-28 00:02:00",1323295,8.76,208.1,7.296,1.411,13.04,103.1854,7.431,8.63,31.14,0,110.1,13.18,8.21,170.1
"2016-01-28 00:02:30",1323296,8.8,208,6.832,1.488,12.61,103.1813,7.421,8.59,31.14,0,110.1,13.18,8.20,170.0
"2016-01-28 00:03:00",1323297,8.83,208.1,7.628,1.489,13.28,103.172,7.397,8.62,31.17,0,110.1,13.18,8.18,170.1
"2016-01-28 00:03:30",1323298,9.11,210.5,7.652,1.366,13.98,103.1602,7.367,8.66,31.25,0,110.1,13.18,8.14,172.5
"2016-01-28 00:04:00",1323299,8.23,207.1,6.264,1.39,12.15,103.1594,7.365,8.55,31.11,0,110.1,13.18,8.14,169.1
"2016-01-28 00:04:30",1323300,8.47,206.5,7.154,1.347,12.22,103.1609,7.369,8.56,31.02,0,110.1,13.18,8.15,168.5
"2016-01-28 00:05:00",1323301,8.65,209.6,6.154,1.387,12.8,103.1621,7.372,8.5,31.02,0,110.1,13.18,8.15,171.6
"2016-01-28 00:05:30",1323302,8.79,210.3,7.839,1.448,13.39,103.1536,7.35,8.58,31.13,0,110.1,13.18,8.13,172.3
"2016-01-28 00:06:00",1323303,8.9,210.7,7.297,1.416,13.8,103.1401,7.316,8.53,31.02,0,110.1,13.19,8.09,172.7
"2016-01-28 00:06:30",1323304,8.63,209.2,7.075,1.44,13.72,103.1328,7.297,8.57,31.16,0,110.1,13.19,8.07,171.2
"2016-01-28 00:07:00",1323305,8.54,206.3,7.274,1.429,13.19,103.1328,7.297,8.5,31.16,0,110.1,13.19,8.07,168.3
"2016-01-28 00:07:30",1323306,7.853,204.9,6.539,1.25,11.32,103.1343,7.301,8.37,31.08,0,110.1,13.19,8.08,166.9
"2016-01-28 00:08:00",1323307,8.43,207.3,7.531,1.415,12.8,103.1269,7.282,8.5,31.21,0,110.1,13.2,8.06,169.3
"2016-01-28 00:08:30",1323308,8.14,205.6,6.544,1.342,11.97,103.1188,7.261,8.46,31.2,0,110.1,13.2,8.04,167.6
"2016-01-28 00:09:00",1323309,9.37,211.4,6.422,1.278,14.89,103.1177,7.258,8.51,31.32,0,110.1,13.2,8.04,173.4
"2016-01-28 00:09:30",1323310,8.81,209.7,6.864,1.422,13.32,103.1105,7.24,8.44,31.23,0,110.1,13.2,8.02,171.7
"2016-01-28 00:10:00",1323311,8.05,206.3,6.451,1.167,11.9,103.1091,7.236,8.39,31.14,0,110.1,13.2,8.01,168.3
"2016-01-28 00:10:30",1323312,7.974,207,6.029,1.155,11.61,103.1091,7.237,8.33,31.06,0,110.1,13.2,8.01,169.0
"2016-01-28 00:11:00",1323313,8.3,210.8,7.507,1.36,12.74,103.1016,7.217,8.41,31.04,0,110.1,13.2,7.99,172.8
"2016-01-28 00:11:30",1323314,8.75,212,7.378,1.387,13.74,103.0925,7.194,8.46,31.11,0,110.1,13.2,7.97,174.0
"2016-01-28 00:12:00",1323315,9.03,214.8,6.849,1.348,14,103.0903,7.188,8.43,31.18,0,110.1,13.2,7.97,176.8
"2016-01-28 00:12:30",1323316,8.92,216.7,5.77,1.219,13.92,103.0816,7.166,8.38,31.16,0,110.1,13.2,7.94,178.7
"2016-01-28 00:13:00",1323317,7.761,212.5,7.433,1.429,12.09,103.0834,7.171,8.3,30.72,0,110.1,13.2,7.95,174.5
"2016-01-28 00:13:30",1323318,8.68,217.8,9.62,1.454,13.17,103.0831,7.17,8.31,31.02,0,110.1,13.2,7.95,179.8
"2016-01-28 00:14:00",1323319,7.566,215.6,9.11,1.324,12.56,103.0837,7.171,8.33,31.2,0,110.1,13.2,7.95,177.6
"2016-01-28 00:14:30",1323320,8.22,220.5,8.54,1.441,13.57,103.0826,7.169,8.35,31.06,0,110.1,13.2,7.95,182.5
"2016-01-28 00:15:00",1323321,8.3,230.1,8.42,1.423,14.64,103.0792,7.16,8.4,30.6,0,110.1,13.2,7.94,192.1
"2016-01-28 00:15:30",1323322,7.307,226.8,5.292,1.684,13.4,103.0797,7.161,8.38,30.63,0,110.1,13.2,7.94,188.8
"2016-01-28 00:16:00",1323323,6.808,211.6,8.34,0.812,11.3,103.0769,7.154,8.16,30.32,0,110.1,13.2,7.93,173.6
"2016-01-28 00:16:30",1323324,7.48,220.6,9.83,1.128,12.41,103.0803,7.163,8.34,30.75,0,110.1,13.2,7.94,182.6
"2016-01-28 00:17:00",1323325,8.35,222.3,7.467,1.336,13.68,103.08,7.162,8.29,30.49,0,110.1,13.2,7.94,184.3
"2016-01-28 00:17:30",1323326,8.35,223,7.561,1.286,13.97,103.0829,7.169,8.38,30.53,0,110.1,13.2,7.95,185.0
"2016-01-28 00:18:00",1323327,8.93,218.3,7.168,1.314,14.05,103.0837,7.171,8.36,30.91,0,110.1,13.2,7.95,180.3
"2016-01-28 00:18:30",1323328,7.671,217.9,7.845,1.272,12.25,103.0837,7.171,8.29,30.74,0,110.1,13.2,7.95,179.9
"2016-01-28 00:19:00",1323329,7.133,219.6,6.181,1.088,11.54,103.0837,7.171,8.25,30.47,0,110.1,13.2,7.95,181.6
"2016-01-28 00:19:30",1323330,8.1,221.8,8.09,1.598,13.03,103.0837,7.171,8.33,30.52,0,110.1,13.2,7.95,183.8
"2016-01-28 00:20:00",1323331,7.381,229.8,15.16,1.463,13.15,103.0837,7.171,8.33,30.54,0,110.1,13.2,7.95,191.8
"2016-01-28 00:20:30",1323332,7.764,214.4,8.59,1.454,12.99,103.0837,7.171,8.36,30.71,0,110.1,13.2,7.95,176.4
"2016-01-28 00:21:00",1323333,8.13,228.4,8.37,1.346,13.86,103.0837,7.171,8.38,30.62,0,110.1,13.2,7.95,190.4
"2016-01-28 00:21:30",1323334,7.516,219.7,5.863,1.175,12.26,103.084,7.172,8.31,30.4,0,110.1,13.2,7.95,181.7
"2016-01-28 00:22:00",1323335,6.826,221,6.28,1.471,11.99,103.0852,7.175,8.29,30.56,0,110.1,13.2,7.95,183.0
"2016-01-28 00:22:30",1323336,8.18,229.7,10.13,1.486,12.85,103.0863,7.178,8.34,30.58,0,110.1,13.2,7.96,191.7
"2016-01-28 00:23:00",1323337,7.781,228.5,10.81,1.414,13.4,103.0889,7.185,8.35,30.39,0,110.1,13.21,7.96,190.5
"2016-01-28 00:23:30",1323338,8.6,221.6,7.514,1.393,13.64,103.0898,7.187,8.38,30.53,0,110.1,13.21,7.96,183.6
"2016-01-28 00:24:00",1323339,8.77,223.2,8.77,1.394,13.88,103.0958,7.202,8.38,30.67,0,110.1,13.21,7.98,185.2
"2016-01-28 00:24:30",1323340,7.828,213.4,5.996,1.218,12.15,103.1026,7.22,8.31,30.93,0,110.1,13.21,8.00,175.4
"2016-01-28 00:25:00",1323341,6.905,222.1,10.19,1.211,12.47,103.1043,7.224,8.38,30.92,0,110.1,13.21,8.00,184.1
"2016-01-28 00:25:30",1323342,7.413,213.4,9.6,1.33,12.87,103.1103,7.239,8.37,30.75,0,110.1,13.21,8.02,175.4
"2016-01-28 00:26:00",1323343,7.424,208.1,6.724,1.248,12.48,103.1106,7.24,8.44,31.15,0,110.1,13.21,8.02,170.1
"2016-01-28 00:26:30",1323344,8.73,219.4,8.08,1.359,14.53,103.1149,7.251,8.41,31.17,0,110.1,13.21,8.03,181.4
"2016-01-28 00:27:00",1323345,7.33,211.2,7.298,1.316,12.09,103.1146,7.251,8.36,31.04,0,110.1,13.21,8.03,173.2
"2016-01-28 00:27:30",1323346,7.791,209.5,8.03,1.429,12.43,103.1144,7.25,8.41,31.13,0,110.1,13.21,8.03,171.5
"2016-01-28 00:28:00",1323347,7.994,208.7,7.865,1.453,12.48,103.1133,7.247,8.34,31.02,0,110.1,13.21,8.02,170.7
"2016-01-28 00:28:30",1323348,7.916,210.9,7.627,1.421,13.84,103.1132,7.247,8.47,31.3,0,110.1,13.21,8.02,172.9
"2016-01-28 00:29:00",1323349,7.283,212.7,11.59,1.38,12.62,103.1073,7.232,8.34,30.96,0,110.1,13.21,8.01,174.7
"2016-01-28 00:29:30",1323350,8.43,215.1,7.846,1.482,14,103.1087,7.235,8.47,30.8,0,110.1,13.21,8.01,177.1
"2016-01-28 00:30:00",1323351,7.786,211.2,6.051,1.194,11.98,103.1076,7.232,8.39,30.59,0,110.1,13.21,8.01,173.2
"2016-01-28 00:30:30",1323352,7.928,210.3,6.824,1.325,12.5,103.1093,7.237,8.35,30.76,0,110.1,13.21,8.01,172.3
"2016-01-28 00:31:00",1323353,7.582,210.4,7.357,1.3,11.89,103.1084,7.235,8.37,30.87,0,110.1,13.21,8.01,172.4
"2016-01-28 00:31:30",1323354,8.06,222.1,9.13,1.421,14.44,103.1105,7.24,8.48,30.83,0,110.1,13.21,8.02,184.1
"2016-01-28 00:32:00",1323355,7.621,216.3,10.02,1.382,13.38,103.1108,7.241,8.41,30.64,0,110.1,13.21,8.02,178.3
"2016-01-28 00:32:30",1323356,7.92,215.5,10.1,1.533,13.02,103.1128,7.246,8.39,30.64,0,110.1,13.21,8.02,177.5
"2016-01-28 00:33:00",1323357,7.239,209.8,4.866,1.405,12.02,103.112,7.244,8.3,30.58,0,110.1,13.21,8.02,171.8
"2016-01-28 00:33:30",1323358,7.066,216.4,6.401,1.542,12.06,103.1126,7.245,8.3,30.58,0,110.1,13.21,8.02,178.4
"2016-01-28 00:34:00",1323359,7.347,220.7,10.31,1.217,12.4,103.1106,7.24,8.32,30.51,0,110.1,13.21,8.02,182.7
"2016-01-28 00:34:30",1323360,7.297,217.8,10.73,1.288,13.75,103.1072,7.232,8.46,30.67,0,110.1,13.21,8.01,179.8
"2016-01-28 00:35:00",1323361,8.4,226.8,8.69,1.68,14.18,103.1101,7.239,8.37,30.76,0,110.1,13.2,8.02,188.8
"2016-01-28 00:35:30",1323362,6.631,221.1,11.17,1.131,12.74,103.1104,7.24,8.38,30.63,0,110.1,13.21,8.02,183.1
"2016-01-28 00:36:00",1323363,7.101,212.3,6.607,1.225,12.17,103.1093,7.237,8.28,30.52,0,110.1,13.21,8.01,174.3
"2016-01-28 00:36:30",1323364,7.584,212.3,7.761,1.235,12.09,103.1101,7.239,8.3,30.67,0,110.1,13.21,8.02,174.3
"2016-01-28 00:37:00",1323365,7.667,211.3,8.01,1.409,12.86,103.1113,7.242,8.38,30.85,0,110.1,13.2,8.02,173.3
"2016-01-28 00:37:30",1323366,7.773,228.4,9.3,1.44,13.82,103.1105,7.24,8.37,30.76,0,110.1,13.21,8.02,190.4
"2016-01-28 00:38:00",1323367,7.527,219,10.6,1.305,14.19,103.1124,7.245,8.46,30.8,0,110.1,13.21,8.02,181.0
"2016-01-28 00:38:30",1323368,6.861,213.3,6.985,1.882,12.6,103.1127,7.246,8.32,31.15,0,110.1,13.21,8.02,175.3
"2016-01-28 00:39:00",1323369,6.299,216.5,8.27,0.637,10.63,103.1116,7.243,8.25,30.84,0,110,13.26,8.02,178.5
"2016-01-28 00:39:30",1323370,7.099,214,7.936,1.477,11.93,103.1096,7.238,8.3,30.54,0,110,13.21,8.02,176.0
"2016-01-28 00:40:00",1323371,6.859,226.5,8.77,1.399,13.55,103.1107,7.241,8.42,30.55,0,110.1,13.21,8.02,188.5
"2016-01-28 00:40:30",1323372,7.274,212,7.881,1.523,13.65,103.1105,7.24,8.46,30.91,0,110.1,13.21,8.02,174.0
"2016-01-28 00:41:00",1323373,7.692,215.5,9.28,1.342,13.89,103.1073,7.232,8.46,30.98,0,110.1,13.21,8.01,177.5
"2016-01-28 00:41:30",1323374,7.894,212.3,8.48,1.481,13.2,103.1045,7.225,8.4,31.21,0,110,13.21,8.00,174.3
"2016-01-28 00:42:00",1323375,5.986,209.5,6.325,0.716,10.32,103.104,7.223,8.2,30.9,0,110.1,13.22,8.00,171.5
"2016-01-28 00:42:30",1323376,6.402,202.7,7.244,1.404,11.32,103.1006,7.215,8.34,31.35,0,110.1,13.22,7.99,164.7
"2016-01-28 00:43:00",1323377,7.758,212.1,8.29,1.429,13.59,103.0986,7.21,8.39,31.63,0,110.1,13.22,7.99,174.1
"2016-01-28 00:43:30",1323378,7.751,214.8,6.546,1.311,14.36,103.0975,7.207,8.44,31.62,0,110.1,13.21,7.98,176.8
"2016-01-28 00:44:00",1323379,7.338,214.4,8.29,1.341,13.57,103.0915,7.191,8.44,31.73,0,110.1,13.22,7.97,176.4
"2016-01-28 00:44:30",1323380,7.57,218.2,6.229,1.471,13.21,103.0847,7.174,8.33,31.05,0,110,13.21,7.95,180.2
"2016-01-28 00:45:00",1323381,6.044,215.6,6.532,0.368,10.56,103.0847,7.174,8.17,30.74,0,110,13.26,7.95,177.6
"2016-01-28 00:45:30",1323382,6.789,215.7,8.8,1.574,11.84,103.0847,7.174,8.27,30.74,0,110,13.22,7.95,177.7
"2016-01-28 00:46:00",1323383,7.159,224.6,9.59,1.355,13.35,103.0839,7.172,8.39,30.81,0,110,13.22,7.95,186.6
"2016-01-28 00:46:30",1323384,7.629,225.8,8.36,1.472,14.41,103.0788,7.159,8.41,30.79,0,110.1,13.22,7.94,187.8
"2016-01-28 00:47:00",1323385,7.724,228.2,7.963,1.426,14.37,103.0743,7.147,8.39,30.82,0,110,13.22,7.92,190.2
"2016-01-28 00:47:30",1323386,6.559,229.9,5.662,1.486,12.6,103.0701,7.137,8.31,30.49,0,110,13.22,7.91,191.9
"2016-01-28 00:48:00",1323387,5.369,228.3,5.326,0.738,10.82,103.0695,7.135,8.17,30.29,0,110,13.23,7.91,190.3
"2016-01-28 00:48:30",1323388,6.761,225.1,9.17,1.361,11.81,103.0698,7.136,8.26,30.47,0,110.1,13.22,7.91,187.1
"2016-01-28 00:49:00",1323389,7.158,231.3,6.872,1.439,13.45,103.0684,7.132,8.35,30.6,0,110,13.22,7.91,193.3
"2016-01-28 00:49:30",1323390,7.702,236.8,10.32,1.44,14.91,103.0692,7.134,8.37,30.5,0,110,13.22,7.91,198.8
"2016-01-28 00:50:00",1323391,7.411,227.8,8.47,1.465,14.04,103.0701,7.137,8.38,30.65,0,110,13.21,7.91,189.8
"2016-01-28 00:50:30",1323392,7.625,217,8.88,1.424,13.5,103.0729,7.144,8.35,30.85,0,110,13.21,7.92,179.0
"2016-01-28 00:51:00",1323393,6.154,214.1,6.117,0.739,10.79,103.0758,7.151,8.16,30.77,0,110,13.22,7.93,176.1
"2016-01-28 00:51:30",1323394,7.743,215.6,6.962,1.375,12.91,103.0758,7.151,8.3,30.9,0,110,13.21,7.93,177.6
"2016-01-28 00:52:00",1323395,7.52,218.1,8.72,1.456,13.46,103.078,7.157,8.36,30.92,0,110,13.21,7.93,180.1
"2016-01-28 00:52:30",1323396,7.768,216.8,7.498,1.31,13.92,103.0809,7.164,8.35,31.15,0,110,13.21,7.94,178.8
"2016-01-28 00:53:00",1323397,7.832,217.9,7.594,1.417,13.59,103.0815,7.166,8.42,31.37,0,110,13.21,7.94,179.9
"2016-01-28 00:53:30",1323398,7.681,212.2,6.927,1.431,12.72,103.0841,7.173,8.27,31.38,0,110,13.21,7.95,174.2
"2016-01-28 00:54:00",1323399,7.092,209.3,6.022,1.275,11.31,103.0827,7.169,8.21,31.39,0,110,13.21,7.95,171.3
"2016-01-28 00:54:30",1323400,7.455,211.4,5.701,1.391,11.84,103.0785,7.158,8.32,31.38,0,110,13.22,7.94,173.4
"2016-01-28 00:55:00",1323401,8.64,220.4,6.535,1.354,14.11,103.0806,7.163,8.37,31.48,0,110,13.21,7.94,182.4
"2016-01-28 00:55:30",1323402,7.691,215.9,7.37,1.352,13.07,103.0783,7.158,8.35,31.58,0,110,13.22,7.93,177.9
"2016-01-28 00:56:00",1323403,8.06,220,6.87,1.407,13.82,103.0778,7.156,8.42,31.67,0,110,13.23,7.93,182.0
"2016-01-28 00:56:30",1323404,7.413,216.1,6.74,1.412,11.99,103.0702,7.137,8.26,31.53,0,110,13.23,7.91,178.1
"2016-01-28 00:57:00",1323405,6.97,216,5.378,0.981,11.18,103.0642,7.122,8.24,31.5,0,110,13.23,7.90,178.0
"2016-01-28 00:57:30",1323406,7.567,217.3,6.756,1.301,12.04,103.0674,7.13,8.23,31.53,0,110,13.23,7.91,179.3
"2016-01-28 00:58:00",1323407,8.29,226.8,7.434,1.405,14,103.068,7.131,8.41,31.45,0,110,13.23,7.91,188.8
"2016-01-28 00:58:30",1323408,7.543,226.7,8.93,1.374,13.11,103.0695,7.135,8.29,31.17,0,110,13.23,7.91,188.7
"2016-01-28 00:59:00",1323409,7.921,228.1,6.774,1.459,13.67,103.0712,7.14,8.3,30.93,0,110,13.23,7.92,190.1
"2016-01-28 00:59:30",1323410,7.507,226.9,7.601,1.524,12.19,103.0724,7.143,8.23,30.87,0,110,13.23,7.92,188.9
"2016-01-28 01:00:00",1323411,6.951,226.6,5.559,1.444,12.06,103.0713,7.14,8.22,30.76,0,110,13.23,7.92,188.6
"2016-01-28 01:00:30",1323412,7.11,231.8,9.42,1.43,12.88,103.0724,7.143,8.3,30.72,0,110,13.23,7.92,193.8
"2016-01-28 01:01:00",1323413,7.953,236.3,7.588,1.394,14.18,103.0756,7.151,8.33,30.61,0,110,13.23,7.93,198.3
"2016-01-28 01:01:30",1323414,7.354,235.1,8.54,1.511,13,103.0739,7.147,8.33,30.5,0,110,13.23,7.92,197.1
"2016-01-28 01:02:00",1323415,7.014,234.2,6.883,1.471,12.23,103.0762,7.152,8.26,30.43,0,110,13.23,7.93,196.2
"2016-01-28 01:02:30",1323416,7.061,233.6,8.37,0.886,12.33,103.0788,7.159,8.22,30.37,0,110,13.23,7.94,195.6
"2016-01-28 01:03:00",1323417,7.197,231.1,6.616,1.087,11.87,103.0797,7.161,8.22,30.35,0,110,13.23,7.94,193.1
"2016-01-28 01:03:30",1323418,6.977,240.9,9.12,1.437,13.63,103.0794,7.16,8.35,30.51,0,110,13.23,7.94,202.9
"2016-01-28 01:04:00",1323419,7.249,239.8,6.978,1.483,13.49,103.082,7.167,8.32,30.39,0,110,13.23,7.94,201.8
"2016-01-28 01:04:30",1323420,6.811,236.3,10.18,1.519,13.48,103.0826,7.169,8.3,30.37,0,110,13.23,7.95,198.3
"2016-01-28 01:05:00",1323421,6.391,233.7,10.21,1.247,12.32,103.0857,7.177,8.24,30.38,0,110,13.23,7.95,195.7
"2016-01-28 01:05:30",1323422,6.623,225.9,4.196,1.136,11.81,103.0914,7.191,8.24,30.46,0,110,13.23,7.97,187.9
"2016-01-28 01:06:00",1323423,7.477,235,7.158,1.263,13.19,103.0996,7.212,8.36,30.54,0,110,13.23,7.99,197.0
"2016-01-28 01:06:30",1323424,7.258,233.9,6.795,1.424,13.14,103.1041,7.224,8.34,30.37,0,110,13.23,8.00,195.9
"2016-01-28 01:07:00",1323425,7.54,231.2,8.28,1.541,13.36,103.1089,7.236,8.31,30.34,0,110,13.23,8.01,193.2
"2016-01-28 01:07:30",1323426,7.503,237.3,7.383,1.405,13.25,103.1146,7.25,8.35,30.26,0,110,13.22,8.03,199.3
"2016-01-28 01:08:00",1323427,7.275,235.1,11.8,1.437,13.14,103.1189,7.261,8.33,30.1,0,110,13.22,8.04,197.1
"2016-01-28 01:08:30",1323428,6.069,225.5,3.745,0.336,10.74,103.1197,7.263,8.27,30.15,0,110,13.27,8.04,187.5
"2016-01-28 01:09:00",1323429,7.188,240.6,5.884,1.397,13.25,103.1197,7.263,8.37,30.14,0,110,13.22,8.04,202.6
"2016-01-28 01:09:30",1323430,7.308,234.3,7.953,1.666,13.08,103.1197,7.263,8.4,30.29,0,110,13.22,8.04,196.3
"2016-01-28 01:10:00",1323431,6.215,248.6,13.03,1.419,12.46,103.1197,7.263,8.33,30.12,0,110,13.22,8.04,210.6
"2016-01-28 01:10:30",1323432,6.117,237.1,7.122,1.369,12.98,103.1214,7.268,8.43,30.11,0,110,13.22,8.05,199.1
"2016-01-28 01:11:00",1323433,6.91,231.8,9.48,1.594,13.2,103.1259,7.279,8.38,30.24,0,110,13.22,8.06,193.8
"2016-01-28 01:11:30",1323434,5.493,235.3,4.984,0.264,10.52,103.131,7.292,8.24,30.08,0,110,13.27,8.07,197.3
"2016-01-28 01:12:00",1323435,6.753,237.3,5.828,1.529,13.32,103.1335,7.299,8.43,30.18,0,110,13.23,8.08,199.3
"2016-01-28 01:12:30",1323436,6.918,242.4,8.09,1.403,13.4,103.1307,7.292,8.43,30.14,0,110,13.23,8.07,204.4
"2016-01-28 01:13:00",1323437,6.362,232.1,7.467,1.438,12.4,103.1327,7.297,8.42,30.11,0,110,13.23,8.07,194.1
"2016-01-28 01:13:30",1323438,7.119,244.4,9.15,1.41,13.59,103.1347,7.302,8.46,30.12,0,110,13.23,8.08,206.4
"2016-01-28 01:14:00",1323439,6.407,237.3,7.392,1.248,12.22,103.1381,7.31,8.4,30.05,0,110,13.23,8.09,199.3
"2016-01-28 01:14:30",1323440,4.926,230.1,4.246,0.254,10.65,103.142,7.321,8.35,29.92,0,110,13.28,8.10,192.1
"2016-01-28 01:15:00",1323441,6.938,233.3,6.728,1.333,12.96,103.1446,7.327,8.43,30.07,0,110,13.23,8.10,195.3
"2016-01-28 01:15:30",1323442,7.252,239,8.44,1.441,13.24,103.144,7.326,8.5,30.07,0,110,13.23,8.10,201.0
"2016-01-28 01:16:00",1323443,7.264,238.6,7.428,1.575,13.5,103.1474,7.334,8.47,30,0,110,13.23,8.11,200.6
"2016-01-28 01:16:30",1323444,7.359,235.7,8.56,1.518,13.15,103.153,7.349,8.43,30.02,0,110,13.23,8.13,197.7
"2016-01-28 01:17:00",1323445,7.389,237,6.602,1.214,12.13,103.1536,7.35,8.44,30.08,0,110,13.23,8.13,199.0
"2016-01-28 01:17:30",1323446,7.791,248.5,9.67,1.507,12.75,103.1536,7.35,8.4,29.95,0,110,13.23,8.13,210.5
"2016-01-28 01:18:00",1323447,6.848,250.1,8.18,1.184,12.48,103.1536,7.35,8.49,30,0,110,13.23,8.13,212.1
"2016-01-28 01:18:30",1323448,8.68,253.2,5.752,1.204,14.49,103.1536,7.35,8.51,29.94,0,110,13.23,8.13,215.2
"2016-01-28 01:19:00",1323449,6.882,238.5,7.824,1.298,12.49,103.1536,7.35,8.44,29.89,0,110,13.23,8.13,200.5
"2016-01-28 01:19:30",1323450,7.665,241.1,6.275,1.395,12.92,103.1536,7.35,8.52,30.05,0,110,13.23,8.13,203.1
"2016-01-28 01:20:00",1323451,7.778,243.9,6.313,1.336,13.25,103.1536,7.35,8.47,29.99,0,110,13.23,8.13,205.9
"2016-01-28 01:20:30",1323452,6.639,240.5,7.79,1.533,11.55,103.1536,7.35,8.41,30.07,0,110,13.23,8.13,202.5
"2016-01-28 01:21:00",1323453,7.016,246.7,10.27,1.205,11.65,103.1539,7.351,8.44,30.12,0,110,13.23,8.13,208.7
"2016-01-28 01:21:30",1323454,6.655,250.4,8.76,1.463,12.74,103.1539,7.351,8.56,30.01,0,110,13.23,8.13,212.4
"2016-01-28 01:22:00",1323455,7.235,240.4,7.566,1.446,12.82,103.1536,7.35,8.46,30.07,0,110,13.23,8.13,202.4
"2016-01-28 01:22:30",1323456,7.703,239,7.916,1.538,13.23,103.1536,7.35,8.48,30.15,0,110,13.23,8.13,201.0
"2016-01-28 01:23:00",1323457,7.181,230.4,12.73,1.508,11.68,103.1536,7.35,8.47,30.43,0,110,13.24,8.13,192.4
"2016-01-28 01:23:30",1323458,7.279,239,7.76,1.478,12.92,103.1536,7.35,8.51,30.54,0,110,13.23,8.13,201.0
"2016-01-28 01:24:00",1323459,6.676,237.6,8.81,1.509,12.82,103.1536,7.35,8.5,30.15,0,110,13.23,8.13,199.6
"2016-01-28 01:24:30",1323460,6.822,240.7,9.25,1.482,12.45,103.1536,7.35,8.49,30.42,0,110,13.23,8.13,202.7
"2016-01-28 01:25:00",1323461,6.079,240.3,8.19,1.273,12.11,103.1536,7.35,8.51,30.55,0,110,13.23,8.13,202.3
"2016-01-28 01:25:30",1323462,7.119,238.3,7.417,1.348,12.89,103.1536,7.35,8.43,30.27,0,110,13.23,8.13,200.3
"2016-01-28 01:26:00",1323463,6.879,238.2,11.31,1.329,12.09,103.1497,7.34,8.44,30.25,0,110,13.23,8.12,200.2
"2016-01-28 01:26:30",1323464,6.622,241.9,9.71,1.463,11.89,103.1417,7.32,8.41,30.45,0,110,13.23,8.10,203.9
"2016-01-28 01:27:00",1323465,6.87,242.7,7.445,1.378,12.34,103.1367,7.307,8.47,30.39,0,110,13.23,8.08,204.7
"2016-01-28 01:27:30",1323466,7.219,241.5,7.768,1.331,12.91,103.1333,7.298,8.49,30.48,0,110,13.22,8.08,203.5
"2016-01-28 01:28:00",1323467,6.447,244.1,7.582,1.496,12.95,103.1313,7.293,8.49,30.43,0,110,13.23,8.07,206.1
"2016-01-28 01:28:30",1323468,6.815,244.9,8.92,1.271,12.26,103.1245,7.276,8.39,30.36,0,110.1,13.23,8.05,206.9
"2016-01-28 01:29:00",1323469,6.697,243.5,7.589,1.206,11.77,103.1197,7.263,8.4,30.35,0,110,13.23,8.04,205.5
"2016-01-28 01:29:30",1323470,7.253,247.7,7.455,1.506,12.94,103.1197,7.263,8.46,30.42,0,110,13.23,8.04,209.7
"2016-01-28 01:30:00",1323471,6.621,239.9,7.496,1.386,11.96,103.1197,7.263,8.45,30.45,0,110,13.23,8.04,201.9
"2016-01-28 01:30:30",1323472,6.95,236.6,10.44,1.326,13.09,103.1186,7.261,8.41,30.5,0,110,13.23,8.04,198.6
"2016-01-28 01:31:00",1323473,6.764,238.6,8.13,1.395,12.34,103.1115,7.243,8.4,30.51,0,110,13.23,8.02,200.6
"2016-01-28 01:31:30",1323474,6.729,237.1,8.07,1.281,12.83,103.1033,7.222,8.42,30.51,0,110,13.23,8.00,199.1
"2016-01-28 01:32:00",1323475,6.604,236.6,7.02,1.252,12.23,103.1022,7.219,8.4,30.52,0,110,13.24,8.00,198.6
"2016-01-28 01:32:30",1323476,6.636,240,7.502,1.364,11.86,103.0948,7.2,8.32,30.49,0,110,13.24,7.98,202.0
"2016-01-28 01:33:00",1323477,6.547,246.5,7.386,1.414,12.53,103.088,7.183,8.39,30.47,0,110,13.24,7.96,208.5
"2016-01-28 01:33:30",1323478,6.55,244,9.51,1.438,12.95,103.0863,7.178,8.41,30.46,0,110,13.24,7.96,206.0
"2016-01-28 01:34:00",1323479,6.598,236,6.107,1.395,12.02,103.0858,7.177,8.34,30.6,0,110,13.24,7.95,198.0
"2016-01-28 01:34:30",1323480,6.743,238.1,7.007,1.272,12.4,103.0858,7.177,8.4,30.71,0,110,13.24,7.95,200.1
"2016-01-28 01:35:00",1323481,6.425,233.3,6.549,1.22,11.3,103.0858,7.177,8.21,30.52,0,110,13.24,7.95,195.3
"2016-01-28 01:35:30",1323482,7.305,237.4,7.865,1.452,12.97,103.0858,7.177,8.35,30.66,0,110,13.24,7.95,199.4
"2016-01-28 01:36:00",1323483,6.813,239.7,7.915,1.407,12.03,103.0858,7.177,8.35,30.69,0,110,13.24,7.95,201.7
"2016-01-28 01:36:30",1323484,7.265,240,7.988,1.271,13.16,103.0858,7.177,8.36,30.85,0,110,13.24,7.95,202.0
"2016-01-28 01:37:00",1323485,6.941,239.2,6.282,1.358,12.04,103.0835,7.171,8.28,30.79,0,110,13.24,7.95,201.2
"2016-01-28 01:37:30",1323486,6.418,240.4,8.74,1.33,12.75,103.0768,7.154,8.37,30.82,0,110,13.24,7.93,202.4
"2016-01-28 01:38:00",1323487,6.299,243.9,6.513,1.227,11.38,103.0731,7.144,8.24,30.6,0,110,13.24,7.92,205.9
"2016-01-28 01:38:30",1323488,7.112,248.7,9.36,1.37,12.51,103.0694,7.135,8.26,30.48,0,110,13.24,7.91,210.7
"2016-01-28 01:39:00",1323489,6.849,242.4,7.427,1.366,12.53,103.0688,7.133,8.41,30.78,0,110,13.24,7.91,204.4
"2016-01-28 01:39:30",1323490,6.653,240.8,8.23,1.459,12.38,103.0674,7.13,8.28,30.73,0,110,13.24,7.91,202.8
"2016-01-28 01:40:00",1323491,6.373,241,6.793,1.42,12.65,103.062,7.116,8.3,30.65,0,110,13.23,7.89,203.0
"2016-01-28 01:40:30",1323492,6.354,242.9,8.27,1.415,12.74,103.055,7.098,8.33,30.84,0,110,13.23,7.88,204.9
"2016-01-28 01:41:00",1323493,6.27,241.8,6.476,1.377,11.57,103.0519,7.09,8.24,30.91,0,110,13.23,7.87,203.8
"2016-01-28 01:41:30",1323494,6.42,239.9,6.604,1.306,11.55,103.0519,7.09,8.27,30.9,0,110,13.23,7.87,201.9
"2016-01-28 01:42:00",1323495,7.263,246.2,6.99,1.398,12.88,103.0519,7.09,8.27,30.94,0,110,13.23,7.87,208.2
"2016-01-28 01:42:30",1323496,7.287,247.9,6.763,1.438,13.01,103.0519,7.09,8.27,30.89,0,110,13.23,7.87,209.9
"2016-01-28 01:43:00",1323497,6.722,246.8,7.231,1.252,12.17,103.0519,7.09,8.24,30.69,0,110,13.23,7.87,208.8
"2016-01-28 01:43:30",1323498,6.143,247.4,6.857,1.235,12.36,103.0519,7.09,8.27,30.66,0,110,13.23,7.87,209.4
"2016-01-28 01:44:00",1323499,6.072,243.3,7.778,1.256,11.38,103.0519,7.09,8.2,30.66,0,110,13.23,7.87,205.3
"2016-01-28 01:44:30",1323500,6.638,252.2,8.25,1.259,12.49,103.0496,7.084,8.28,30.8,0,110,13.23,7.86,214.2
"2016-01-28 01:45:00",1323501,6.427,252.3,5.38,1.321,11.54,103.0434,7.068,8.22,30.73,0,110,13.24,7.85,214.3
"2016-01-28 01:45:30",1323502,6.6,257.4,7.185,1.451,12.23,103.0369,7.052,8.24,30.74,0,110,13.24,7.83,219.4
"2016-01-28 01:46:00",1323503,6.63,256.5,9.89,1.582,12.82,103.0346,7.046,8.29,30.57,0,110,13.24,7.82,218.5
"2016-01-28 01:46:30",1323504,6.672,254.7,6.7,1.453,12.24,103.0307,7.036,8.18,30.7,0,110,13.24,7.81,216.7
"2016-01-28 01:47:00",1323505,6.637,255.4,7.59,1.357,12.04,103.0191,7.006,8.2,30.7,0,110,13.24,7.78,217.4
"2016-01-28 01:47:30",1323506,6.39,254.8,7.305,1.379,11.72,103.018,7.004,8.17,30.82,0,110,13.24,7.78,216.8
"2016-01-28 01:48:00",1323507,6.259,250.6,8.91,1.412,12.06,103.018,7.004,8.24,31.3,0,110,13.24,7.78,212.6
"2016-01-28 01:48:30",1323508,6.566,252,9.45,1.359,12.39,103.018,7.004,8.2,31.1,0,110,13.24,7.78,214.0
"2016-01-28 01:49:00",1323509,5.985,254.3,8.56,1.413,12.02,103.018,7.004,8.15,30.92,0,110,13.24,7.78,216.3
"2016-01-28 01:49:30",1323510,6.478,256.4,7.882,1.372,12.93,103.0146,6.995,8.2,30.72,0,110,13.24,7.77,218.4
"2016-01-28 01:50:00",1323511,5.54,250.3,6.119,1.161,11.39,103.0072,6.976,8.13,30.68,0,110,13.24,7.75,212.3
"2016-01-28 01:50:30",1323512,6.71,252.5,9.09,1.474,12.7,102.9985,6.954,8.19,30.5,0,110,13.24,7.73,214.5